Location: East Horndon
(51.5667°N, 0.3500°E)
Time: 23:04:00
(UTC+00:00)

ADEOS Rocket - Pass Details

Date: 08 November 2025
Orbit: 858 x 1304 km, 98.7° (Epoch: 04 December)

Event Time Altitude Azimuth Distance (km) Brightness Sun altitude
Rises 04:16:18 0° 12° (NNE) 3,724 6.3 -26.3°
Reaches altitude 10° 04:18:44 10° 8° (N) 2,828 5.6 -25.9°
Maximum altitude 04:24:55 53° 294° (WNW) 1,343 3.3 -24.9°
Enters shadow 04:25:41 50° 272° (W) 1,389 3.3 -24.8°
